[Date Prev][Date Next][Thread Prev][Thread Next][Date Index][Thread Index]
[jamsat-news:1022] jas2info #116
- From: Takayama Syuzo <takayama@bm-1.ktokai-u.ac.jp>
 
- Date: Thu, 4 Feb 1999 18:22:32 +0900
 
- References: <199901301104.UAA02972@bm-1.ktokai-u.ac.jp>
 
=========================   最新情報   ==============================
        Last updated :Thu.4-Feb.-1999 18:00 (JST) #116
====================================================================
   
     衛星情報 FOシリーズの軌道要素、テレメトリ、QSOの状況等を
   まとめてみました.
  1)FO−29(ふじ3号)は2月5日 (木)の16:02(JST)からの
     パスではJAアナログモードで運用されていました.信号は力強いRS59+で
     安定したテレメトリを送信しておりました.
         
 ■ 軌道要素1:「jamsatーkeps:856」より
                 SB KEPS @ AMSAT  $ORB99029.N
                 2Line Orbital Elements 99029.AMSAT
 HR AMSAT ORBITAL ELEMENTS FOR AMATEUR SATELLITES IN NASA FORMAT
 FROM WA5QGD FORT WORTH,TX January 29, 1999
 SEND SUBSCRIBE/UNSUBSCRIBE TO majordomo@amsat.org ONLY
 BID: ORB99029.N
  DECODE 2-LINE ELSETS WITH THE FOLLOWING KEY:
  1 AAAAAU 00  0  0 BBBBB.BBBBBBBB  .CCCCCCCC  00000-0  00000-0 0  DDDZ
  2 AAAAA EEE.EEEE FFF.FFFF GGGGGGG HHH.HHHH III.IIII JJ.JJJJJJJJKKKKKZ
  KEY: A-CATALOGNUM B-EPOCHTIME C-DECAY D-ELSETNUM E-INCLINATION F-RAAN
  G-ECCENTRICITY H-ARGPERIGEE I-MNANOM J-MNMOTION K-ORBITNUM Z-CHECKSUM
  TO ALL RADIO AMATEURS BT
  FO-29
  1 24278U 96046B   99029.89196869  .00000040  00000-0  74162-4 0  2219
  2 24278  98.5421 359.6484 0352216  92.3580 271.7928 13.52658533121112
 ■ 軌道要素2:「jamsatーkeps:857」より
                 SB KEPS @ AMSAT  $ORB99029.O
                 Orbital Elements  99029.OSCAR
  HR AMSAT ORBITAL ELEMENTS FOR OSCAR SATELLITES
  FROM WA5QGD FORT WORTH,TX January 29, 1999
  SEND SUBSCRIBE/UNSUBSCRIBE TO majordomo@amsat.org ONLY
  BID: ORB99029.O
  TO ALL RADIO AMATEURS BT
  Satellite: FO-29
  Catalog number: 24278
  Epoch time:      99029.89196869
  Element set:     221
  Inclination:       98.5421 deg
  RA of node:       359.6484 deg
  Eccentricity:    0.0352216
  Arg of perigee:    92.3580 deg
  Mean anomaly:     271.7928 deg
  Mean motion:   13.52658533 rev/day
  Decay rate:        4.0e-07 rev/day^2
  Epoch rev:           12111
  Checksum:              336
  Satellite: FO-29
 
 -----------------------------------------------------------
 2)FO−29(ふじ3号)の 2月4日(木)のJAアナログテレメトリの一部分は
     次のようになっていました.
 
 AS12185C1     4Feb99
 JST  16:07 - 16:15
                 
 HI HI AE C7 88 55 00 5C CD B9 09 0B 4D A4 82 61 94 92 B0 77 A7 A3 A5 A8 A5
 HI HI AE C' 88 55 00 5C CD B9 09 0B 85 A2 6D 60 94 92 B0 76 A7 A3 A5 A8 A5 
 HI HI AE C7 88 55 00 5C CD B9 09 0B 9C 70 7C 61 94 92 B0 72 A6 A3 A5 A8 A5 
 HI HI AE C7 88 55 00 5C CD B9 09 0B 66 52 8B 61 94 92 B0 82 A7 A3 A5 A7 A6
 HI HI AE C7 88 55 00 5C CD B9 09 0B 2F 76 8B 60 94 93 B0 79 A6 A3 A5 A7 A6 
 HI HI AE C7 88 55 00 5C CD B9 09 0B 4E 9E 78 61 94 92 B0 75 A6 A3 A5 A7 A5 
 HI HI AE C7 88 55 00 5C CD B9 09 0B 99 84 67 60 94 92 B0 75 A6 A2 A5 A7 A5 
 HI HI AE C7 88 55 00 5C CD B9 09 0B A3 47 79 61 94 92 B0 82 A6 A3 A5 A7 A5 
 HI HI AE C7 88 55 00 5C CD B9 09 0B 56 38 88 61 94 92 B0 6D A6 U2 A5 A7 A5 
 HI HI AE C7 88 55 00 5F CD B9 09 0B 21 63 88 61 94 92 B0 5F A6 A2 A5 A7 A6 
 HI HI AE C7 88 55 00 60 CD B9 09 0B 51 79 75 61 94 92 B0 54 A6 A2 A4 A6 A5 
 HI HI AE C7 88 51 00 60 CD B9 09 0B 9C 4F 68 61 94 92 B0 71 A6 A2 A4 A6 A5 
 HI HI AE C7 88 51 00 60 CD B9 09 0B 90 20 7B 61 94 93 B0 50 A6 A2 A4 A6 A5 
 HI HI AE C7 88 55 00 66 
  JAアナログテレメトリの最初の一行の換算例.
   テレメトリ	内   容		換算値	単 位
 3C	磁気センサーZ軸	=	37745.1	nT
 3D	磁気センサX軸	=	80392.1	nT
 4A	太陽電池発生電流	= 	 1274.5	mA
 4B	B充放電電流	=	  -98.8	mA
 4C	B端子電圧	=	   15.9	V
 4D	B中間端子電圧	=	    7.0	V
 5A	バス電圧 	=	   17.3	V
 5B	JTA送信電力	=	  675.4	mW
 5C 	構体温度1	=	   17.0	℃
 5D	構体温度2	=	   18.6	℃
 6A	構体温度3	=	   17.8	℃
 6B	構体温度4	=	   16.6	℃
 6C	Bセル温度	=	   17.8	℃
  
*計算処理は OFFICE 97 を使用.  
  −−−−−−−−−−−−−−−−−−−−−−−−−−−−−−−−−−−−−−
  
・次のJAアナログのテレメトリデータも取得できました.参考までに提示しておきます.
  AS12184  4Feb99
  JST  14:28 - 14:30
                                                            D A5 A3 A5 A5 A6 
  HI HI AE C7 88 51 00 5C 4D C5 09 3C 9A B1 62 61 94 93 B0 78 A5 A3 A5 A5 A6 
  HI HI AE C7 88 51 00 5C 4D C5 09 3E 
 
 =============== FO−29のディジタルテレメトリについての情報 ==============
 
  JE9PEL/1局の脇田美根夫氏が[jamsat-bb:4127]へ当局のJDテレメトリ
  データをグラフ表示されてましたのでご紹介します.
  
  ----------------------------
 衛星情報2 (in Jan.25, 1999)
 ----------------------------
                           by JE9PEL/1 脇田
 『jas2info #114』[jamsat-news:1016] の中で JH6MME/高山氏は、1月25日
 14:40-14:43JSTに 衛星FO-29のデジタルテレメトリデータを受信したという
 報告がなされました。このデータをさっそく『fo29tlm4.exe』を用いて解析
 してみました。
 このうち、変化の大きい「太陽電池発生電流」と「デジタル部出力電力」の
 様子を次に紹介します。なお、今回解析に使用した『fo29tlm4.exe』の改良
 バージョンアップ版(V.4.03)を、近日中に下記URLに登録しておきますので、
 どうぞご利用下さい。
> 太陽電池発生電流 (# 50mA)
>  ( データ 1 )  1039.2[mA] : #####################
>  ( データ 2 )  1039.2[mA] : #####################
>  ( データ 3 )   970.6[mA] : ###################
>  ( データ 4 )   970.6[mA] : ###################
>  ( データ 5 )   980.4[mA] : ####################
>  ( データ 6 )   990.2[mA] : ####################
>  ( データ 7 )   990.2[mA] : ####################
>  ( データ 8 )  1009.8[mA] : ####################
>  ( データ 9 )  1009.8[mA] : ####################
>  ( データ10 )  1009.8[mA] : ####################
>  ( データ11 )  1009.8[mA] : ####################
>  ( データ12 )  1058.8[mA] : #####################
>  ( データ13 )  1068.6[mA] : #####################
>  ( データ14 )  1049.0[mA] : #####################
>  ( データ15 )  1049.0[mA] : #####################
>  ( データ16 )  1245.1[mA] : #########################
>  ( データ17 )  1284.3[mA] : ##########################
>  ( データ18 )  1274.5[mA] : #########################
>  ( データ19 )  1274.5[mA] : #########################
> 
> デジタル部出力電力 (# 50mW)
>  ( データ 1 )  1896.6[mW] : ######################################
>  ( データ 2 )  1472.0[mW] : #############################
>  ( データ 3 )  1472.0[mW] : #############################
>  ( データ 4 )   551.3[mW] : ###########
>  ( データ 5 )  1896.6[mW] : ######################################
>  ( データ 6 )   557.2[mW] : ###########
>  ( データ 7 )   806.3[mW] : ################
>  ( データ 8 )  1916.7[mW] : ######################################
>  ( データ 9 )  1472.0[mW] : #############################
>  ( データ10 )  1896.6[mW] : ######################################
>  ( データ11 )  1876.6[mW] : ######################################
>  ( データ12 )  1472.0[mW] : #############################
>  ( データ13 )   545.5[mW] : ###########
>  ( データ14 )  1876.6[mW] : ######################################
>  ( データ15 )  1896.6[mW] : ######################################
>  ( データ16 )  1487.6[mW] : ##############################
>  ( データ17 )   781.2[mW] : ################
>  ( データ18 )  1896.6[mW] : ######################################
>  ( データ19 )  1876.6[mW] : ######################################
 ----------------------------------------------
 Name : JE9PEL/1 脇田
 Mail : JE9PEL@jamsat.or.jp
 URL  : http://www.ne.jp/asahi/hamradio/je9pel/
 QTH  : Yokohama, Japan
 Date : 25 Jan.1999
 ----------------------------------------------
 ==========================================================================  
  
 4)FO−20(ふじ2号)のCWテレメトリは1月30日(土)19:37(JST)の
     パスではやはり単一トーンの連続音から唸りを伴った連続音になっいましたがQSOは
     通常どうり使え、JA7CIA局等のCQが聞こえました.
---------------------------------------------------------------------------
 ■ 軌道要素1 :出典は「ふじ3号」に同じ.
 
  FO-20
  1 20480U 90013C   99029.16989744 -.00000036  00000-0 -16669-4 0  1157
  2 20480  99.0376 250.2761 0541660 119.6340 245.9835 12.83248596420504
 ■ 軌道要素2 :出典は「ふじ3号」に同じ.  
               
  Satellite: FO-20
  Catalog number: 20480
  Epoch time:      99029.16989744
  Element set:     115
  Inclination:       99.0376 deg
  RA of node:       250.2761 deg
  Eccentricity:    0.0541660
  Arg of perigee:   119.6340 deg
  Mean anomaly:     245.9835 deg
  Mean motion:   12.83248596 rev/day
  Decay rate:       -3.6e-07 rev/day^2
  Epoch rev:           42050
  Checksum:              319
  
 ====================    FO-20のQSOの状況 ==========================
  
 * [jamsat-bb:4150]にJH0TOG局の吉田氏が投稿されていましたので
    転載させて頂きました.
  こんにちは 新潟の吉田です。斉藤さん戻られたようですね....
  また、しばらくは 南鳥島から出てこられるとおもいます。
  中島さん周波数435.830MHzくらいでした?
  >1999 Jan.31 11:08UTC JA0SUQ/JD1 南鳥島の斉藤さんと
  >FO-20 mode JA(SSB)でQSOしました.
  >Shouichi Nakashima  中島 昌一, E-mail; jim@jsdi.or.jp
   Katsumi Yoshida(JH0TOG)
           jh0tog@d1.dion.ne.jp
           jh0tog@jamsat.or.jp
   JH0YQP http://www.fsinet.or.jp/~jh0yqp/
  *[jamsat-bb:4148]に7K4IIN局中嶋氏が投稿されてましたので
    転載させて頂きました.
   1999 Jan.31 11:08UTC JA0SUQ/JD1 南鳥島の斉藤さんと
   FO-20 mode JA(SSB)でQSOしました.
   de 7K4iiN ; Inside Island Network
   Shouichi Nakashima  中島 昌一, 
   E-mail; jim@jsdi.or.jp
           7k4iin@jamsat.or.jp   
   URL;http://www.jsdi.or.jp/~tina88/7k4iin/
    ----- Office---E-mail; snakashi@hrl.hitachi.co.jp
    TKS es CUAGN ----  ........ --... ...--  - ..- ..
 ===============================================================================
 5)JARL のホームページに新しい運用の予定が記載されていましたのでご紹介します.
        ■ ふじ3号/FO−29 ■  
  
     ふじ3号(JAS−2) 運用予定
  1月25日 〜 2月 1日    アナログ系運用
 2月 1日 〜 2月 3日    デジタル系1200bps運用
 2月 3日 〜 2月 8日    アナログ系運用
 2月 8日 〜 2月15日    デジタル系1200bps運用
 2月15日 〜 2月18日     アナログ系運用
 2月19日 〜 2月22日    デジトーカ運用
 連絡先 : lab@jarl.or.jp
 以後の運用に付きましては2月10日18時頃にお知らせいたします。     
         
        ■ ふじ2号/FO−20 ■      
            「ふじ2号」 現況                                                                                               
   JAS-1b/FO-20(ふじ2号)の不具合発生について
    JAS-1b(ふじ2号)のCWテレメトリ信号に,1997年10月12日12時
 (JST)の日本上空通過時,3桁の数字が繰り返されるはずが3個の長音の
  繰り返しとなっているという異常が発見されました。この不具合は次の通過時
  からは回復していましたが13日15時20分の通過時に再び観測されました。
  衛星のアナログ系中継モード動作は異常が無く,正常時のテレメトリ内容からは
  衛星の動作に異常は認められません。従って,直ちに衛星のミッションに影響す
  ることは無いと予想されますので,当面はアナログ系中継モードを継続します。
  衛星は既に打ち上げてから7年8ヶ月を経ておりますので,今後は監視を強化す
  る予定です。アマチュア各位のレポートをお待ちします.   
  
  以上  http://www.jarl.or.jp/Japanese/3_Fuji/jr1nvu.htm  より.
                                           
   =============   JAS-2 (ふじ3号)と現在までの情報   ===========  
  A.電話によるふじ3号の運用情報
      社団法人日本アマチュア連盟によるサービス
           TEL .   03− 3942 − 1000
  B.アマチュア無線FAXサービス
      JARLによるふじ3号の軌道情報(オービットカレンダー)
         FAX No.  03− 3233 −0055
  C.WWWブラウザで情報を簡単に見れる人のためにJAS−2
     ふじ3号の衛星としての運用されるまでの名前)の概要、打ち上げ
     までの状況、運用中における状況を説明したホームページを紹介し
     ておきます.
    1)社団法人日本アマチュア無線連盟(JARL)のホームページ
          http://www.jarl.or.jp/Japanese/3_Fuji/jr1nvu.htm
 
    2)宇宙開発事業団(NASDA)ホームページ 
          http://www.nasda.go.jp/
         打上げ衛星 :地球観測プラットフォーム技術衛星(ADEOS) 
                       アマチュア衛星3号(JAS-2)
          http://yyy.tksc.nasda.go.jp/Home/Press/Press-j/jas-2_j.html        
  D.JAMSATによる軌道情報の活用
        JAMSATのホームページまたはjamsat−kepsの軌道要素より
      衛星の軌道情報を得る.
     JAMSATホームページ
               URL    http://www.jamsat.or.jp
       上記ホームページでは各地で行われるアマチュア通信衛星に関する
      ミューティングのお知らせや世界のアマチュア衛星に関する情報が
      満載されています.
   
 =========================================================================
       JAMSATのメンバーのご協力によりJH6MME(高山 秀造)が
    執筆・編集を担当しております.ご指摘の意見、疑問やこのようにしたら
    というアイデアがありましたら小さなことでもかまいませんので気軽に下
    記アドレスまでご連絡ください.jamsat−newsからjas2
    infoへの転載をJH4PHW局坂井さんに担当して頂いております.
                    Eーmail : jh6mme@jamsat.or.jp : jh4phw@jamsat.or.jp
 ===============================   END  ===============================